Temperature
21 21 21 21 21 21 21 21 21 21 21 21 21 20 20 20 20 20 20 19 19 19 19 19 19 19 19 19 19 19 19 19 19 18 18 18 18 18 18 18 18 18 18
22 21 21 21 21 21 21 21 21 21 21 21 21 21 20 20 20 20 20 20 20 19 20 20 20 20 20 20 20 20 20 19 19 19 18 18 18 18 18 18 18 18 18
23 22 21 21 21 21 21 21 21 21 21 21 21 21 21 20 20 20 20 20 20 20 20 20 20 20 21 20 20 20 20 20 19 19 19 19 19 19 19 19 18 18 18
23 22 21 21 21 21 21 21 21 21 21 21 21 21 21 21 21 21 20 20 20 20 20 21 21 21 21 21 21 20 20 20 19 19 19 18 18 18 19 19 19 18 18
24 23 22 22 21 21 21 21 21 21 21 21 21 21 21 21 21 21 21 21 21 21 21 21 21 21 21 21 21 20 20 20 19 19 19 18 18 18 18 19 19 19 18
24 23 22 22 22 21 21 21 21 21 21 21 21 21 21 21 21 21 21 21 21 21 21 21 21 21 21 21 21 20 20 20 19 19 19 18 18 18 18 19 19 19 19
24 23 22 22 22 22 21 21 21 21 21 21 21 20 20 20 20 20 20 20 20 20 20 20 20 20 20 20 20 20 20 20 19 19 18 19 18 18 18 18 18 19 19
25 24 23 22 22 22 21 21 21 21 21 21 20 20 20 20 20 20 20 20 20 20 20 20 20 20 20 20 20 20 20 20 19 19 19 18 18 18 18 18 18 18 19
25 24 23 23 22 22 22 21 21 21 21 21 21 20 20 20 20 20 20 20 20 20 20 20 20 20 20 20 20 20 20 19 19 19 19 18 18 18 18 18 18 18 18
25 25 24 23 23 22 22 22 21 21 21 21 21 21 21 20 20 20 20 20 20 19 20 20 20 20 20 20 20 20 19 19 19 19 19 19 18 18 18 18 18 18 18
24 24 24 24 23 23 22 22 21 21 21 21 21 21 21 20 20 20 20 19 19 19 19 19 19 19 19 19 19 19 19 19 19 19 19 19 18 18 18 17 17 17 18
24 24 24 24 24 23 22 22 22 21 21 21 21 21 21 20 20 20 19 19 18 18 18 18 19 19 19 19 19 19 19 19 19 19 19 19 19 18 18 17 17 17 17
24 24 23 23 23 23 22 22 22 21 21 21 21 20 20 20 19 19 19 19 18 18 18 18 18 18 18 19 19 19 19 19 19 19 19 19 19 18 18 18 18 17 18
24 23 22 22 23 22 22 22 21 21 20 20 20 20 19 19 19 19 19 18 18 18 18 18 18 18 18 18 18 18 18 18 18 18 19 19 19 19 18 18 18 18 18
23 22 22 22 22 22 21 21 21 20 20 20 20 19 19 19 19 19 18 18 18 18 18 18 18 18 18 18 18 18 18 18 18 18 18 18 18 18 18 18 18 18 18
21 20 20 21 21 21 21 21 20 20 20 19 19 19 19 19 18 18 18 18 18 18 18 17 17 17 17 17 17 18 18 18 17 18 18 18 18 18 18 18 18 18 18
20 20 19 19 19 20 20 20 20 20 20 19 19 19 19 18 18 18 18 18 18 17 17 17 17 17 17 17 17 17 17 17 17 17 17 18 18 18 18 18 18 18 18
20 19 19 18 18 19 19 20 20 20 19 19 19 19 19 18 18 18 18 18 17 17 17 17 17 17 17 17 17 17 17 17 17 17 17 17 17 17 18 18 18 17 18
19 19 19 19 17 18 19 19 19 19 19 19 19 19 19 19 19 18 18 18 17 17 17 17 17 17 16 16 16 17 17 17 17 17 17 17 17 17 17 18 18 17 17
19 19 19 18 17 16 18 18 19 19 19 19 19 19 19 19 19 18 18 17 17 17 17 16 16 16 16 16 16 16 17 17 17 17 17 17 17 17 18 18 18 18 17
19 19 19 18 17 17 17 17 18 18 19 19 19 19 19 19 19 18 18 17 17 17 16 16 16 16 16 16 16 16 17 17 17 17 17 17 17 17 17 17 18 18 18
18 18 18 17 17 17 17 17 18 18 19 19 19 19 19 19 19 18 18 18 17 17 17 16 16 16 16 16 15 15 16 17 17 17 17 17 17 17 17 17 17 17 18
17 17 16 16 17 17 17 17 18 19 19 19 19 19 19 19 19 18 18 18 18 17 17 17 16 16 16 15 15 15 14 14 15 17 17 17 17 17 17 17 18 18 18
15 15 16 16 16 17 17 18 18 18 19 19 18 18 18 18 18 18 18 18 18 18 17 17 16 16 16 15 15 15 14 14 14 14 16 17 16 17 17 17 17 18 18
15 15 15 15 16 16 16 17 17 18 18 18 18 18 18 18 18 18 18 18 18 18 17 17 17 16 16 15 15 15 14 14 14 14 14 16 17 17 16 17 17 18 18
15 15 15 15 15 15 15 16 16 16 16 17 17 17 17 17 17 17 17 17 17 17 17 17 17 16 16 16 15 15 14 14 14 13 13 14 15 17 16 16 17 17 17
Wind_Speed
12 15 21 20 20 21 21 20 20 19 18 18 18 18 17 17 17 18 18 18 17 16 15 15 14 14 14 14 14 14 14 14 15 15 15 15 15 13 13 15 15 14 16
17 19 23 21 21 22 22 21 20 19 18 18 17 18 17 16 16 17 18 17 16 15 14 14 14 14 14 13 13 13 13 13 13 13 13 14 13 11 11 13 13 13 15
20 18 22 22 22 23 22 22 21 20 19 18 18 17 17 17 16 16 17 17 16 14 13 13 13 13 12 12 12 11 11 11 10 11 11 10 10 11 12 15 15 14 14
20 18 20 23 23 24 23 22 21 21 20 19 18 18 17 17 16 16 16 16 15 14 13 12 12 12 11 11 10 10 10 9 9 9 8 9 9 11 14 16 15 14 13
16 17 21 25 25 24 24 22 22 21 20 20 19 18 18 17 17 16 15 15 14 14 13 12 12 12 11 10 9 8 8 8 8 7 6 8 9 12 14 16 16 15 14
15 15 22 25 25 24 23 22 21 21 20 19 18 18 17 17 16 15 15 15 14 14 13 12 12 11 11 10 9 8 7 7 7 5 5 8 11 15 16 17 17 16 15
14 13 20 24 24 23 23 22 21 20 19 18 18 17 16 16 15 14 14 13 13 13 12 12 11 11 10 10 9 8 8 7 6 6 6 7 13 18 19 19 19 18 16
18 14 17 23 23 23 22 22 21 20 19 19 18 17 16 15 15 14 14 13 13 13 13 13 12 12 12 11 11 10 9 9 7 6 7 9 14 20 21 21 21 20 18
17 15 12 18 21 23 23 22 22 21 20 19 18 18 17 17 16 15 15 15 14 14 14 14 14 14 14 14 13 12 11 11 10 8 8 6 13 21 23 22 22 21 20
15 16 14 14 16 17 19 22 22 21 20 20 19 19 18 18 17 17 16 16 16 16 16 16 16 16 15 15 14 14 13 12 11 10 9 9 11 18 24 23 23 22 22
14 13 13 13 12 14 15 19 20 20 20 20 19 20 18 15 15 15 16 18 18 18 19 19 18 18 17 16 16 15 14 11 10 10 10 11 12 15 22 24 24 23 23
16 14 12 13 13 11 13 14 13 15 16 17 15 16 15 14 14 15 16 20 20 21 21 21 20 18 16 12 13 15 12 12 10 10 11 12 12 12 18 23 24 23 23
17 15 13 13 13 13 10 9 9 10 11 13 15 15 13 11 11 12 10 13 16 19 16 16 16 14 12 10 9 9 10 10 9 11 12 14 14 13 14 21 24 22 22
13 13 12 12 13 14 11 9 9 7 7 8 12 14 10 6 7 6 5 7 7 8 8 8 6 9 11 12 10 9 9 8 9 11 13 16 16 17 15 18 22 22 22
8 6 8 10 11 12 11 9 9 9 8 8 10 13 12 7 7 6 5 4 5 6 4 5 5 7 8 7 9 8 7 8 9 11 12 16 18 19 19 21 22 23 24
6 5 3 5 9 10 10 9 8 8 6 7 8 11 14 8 6 5 5 4 3 4 4 4 5 6 6 6 7 8 7 7 8 11 12 14 18 20 21 23 23 24 26
10 10 9 6 7 7 8 9 7 5 5 6 6 10 11 10 6 5 4 4 3 4 4 3 3 3 4 5 7 7 7 7 8 10 12 12 14 19 24 24 25 26 27
11 10 12 12 7 4 4 5 4 4 5 5 5 7 9 10 8 5 4 3 2 2 1 2 2 2 3 3 4 5 6 6 8 8 9 11 12 14 19 24 27 29 29
9 7 7 12 9 6 1 2 1 2 4 4 5 5 7 9 8 5 4 2 2 2 1 1 1 2 1 2 3 5 5 5 7 8 8 9 11 13 15 19 25 28 29
6 8 8 11 10 10 4 3 3 2 1 3 5 6 7 7 8 6 5 4 3 3 2 1 1 1 2 2 3 4 4 5 5 6 8 7 8 12 15 16 17 19 26
6 9 12 10 7 6 4 2 2 2 2 3 5 6 7 7 8 7 5 4 4 3 2 2 2 1 1 1 1 3 4 5 5 5 5 5 7 8 10 12 13 14 15
10 11 10 7 6 5 3 3 3 3 3 3 4 6 6 7 7 7 7 5 5 3 1 1 2 1 1 1 2 1 4 5 4 2 2 2 4 4 6 8 10 12 13
14 11 10 9 7 6 5 3 3 2 1 2 1 3 5 7 7 7 8 6 5 4 3 2 2 3 2 2 2 3 1 2 4 4 2 2 2 4 5 5 6 9 13
11 10 10 8 8 8 8 6 4 3 2 2 2 3 4 5 7 8 9 8 7 5 4 3 3 3 3 2 1 2 3 4 2 4 4 2 3 4 5 5 5 4 7
8 8 8 8 8 9 10 10 8 7 5 4 4 5 3 3 4 6 8 8 8 6 6 5 4 4 3 4 3 3 2 3 4 4 5 5 4 3 4 5 4 3 4
6 6 6 7 8 8 8 9 9 9 8 7 7 6 5 4 3 3 5 7 8 7 7 6 6 5 5 4 4 4 4 3 4 4 5 5 5 5 5 4 3 2 2
Wind_Direction
161 165 159 159 160 157 149 142 137 135 133 130 128 126 124 124 126 130 130 130 130 130 130 128 125 123 121 118 116 116 118 120 122 122 122 121 120 120 122 120 113 112 111
158 161 158 159 160 158 153 147 144 142 141 139 136 134 132 130 130 133 136 135 134 132 130 128 127 127 128 126 124 124 123 124 125 126 125 125 124 121 128 133 122 124 119
153 158 157 158 159 159 155 152 150 149 148 147 145 143 140 139 137 137 141 141 140 138 135 134 134 134 135 135 135 134 132 130 130 132 130 129 133 126 122 136 133 132 127
152 155 157 158 158 159 158 157 156 155 155 154 153 151 148 147 146 145 145 146 146 146 146 146 146 146 147 148 148 147 145 144 146 151 151 157 160 148 138 139 142 141 138
151 156 159 158 160 161 162 161 162 161 161 160 159 158 156 155 154 153 153 154 155 156 158 159 160 160 161 162 164 165 164 163 168 178 183 186 186 170 161 154 151 150 149
153 158 161 161 162 164 165 165 166 167 167 166 165 164 163 162 162 162 163 163 164 166 168 169 170 172 173 175 180 186 191 190 191 201 224 221 201 188 180 169 162 161 161
156 162 165 164 166 167 168 169 170 171 172 171 171 170 170 171 172 172 173 174 175 176 178 180 182 184 187 190 195 203 215 223 217 214 229 229 202 195 190 181 173 170 171
160 165 168 169 170 171 172 173 174 176 177 177 177 177 178 180 182 184 185 187 189 190 192 194 196 198 201 204 208 215 225 238 248 230 221 220 209 201 197 190 181 178 179
163 167 171 173 174 175 177 178 180 181 182 183 184 184 186 188 191 194 196 199 201 203 204 206 208 210 211 213 217 221 229 240 252 261 263 241 220 209 203 197 189 185 187
168 174 177 176 177 179 181 184 185 187 188 189 190 191 193 196 199 202 205 209 211 212 214 216 217 219 219 220 223 228 234 242 247 253 261 262 247 221 211 203 198 194 193
176 181 181 179 179 180 182 190 191 193 195 194 196 198 199 203 206 210 214 216 220 221 221 222 223 223 225 227 231 234 239 237 236 244 252 261 262 239 222 213 207 204 201
183 188 188 185 184 181 188 192 194 197 199 199 200 202 202 201 207 214 221 226 228 229 229 228 226 225 226 228 232 237 237 237 234 239 243 251 259 253 237 224 218 214 210
183 185 190 191 189 188 194 189 195 201 201 204 205 206 204 203 211 221 221 233 234 233 231 232 229 222 218 218 222 225 230 236 235 236 237 244 250 253 248 233 226 221 218
176 184 186 195 195 197 199 193 192 196 198 205 210 206 202 205 213 217 219 227 222 218 214 218 217 211 214 219 222 226 227 231 232 231 234 242 248 250 245 237 229 225 224
170 184 190 198 203 203 205 199 193 197 200 203 203 204 202 206 215 215 218 222 216 207 204 210 216 214 216 220 224 228 232 233 233 231 235 238 239 239 235 232 227 228 229
91 46 337 232 217 211 209 202 197 196 195 197 200 203 201 202 205 208 212 213 214 203 198 197 209 208 213 216 222 222 225 228 235 230 229 235 237 237 235 230 227 230 232
48 32 20 301 251 223 202 194 182 175 166 175 187 189 186 187 188 190 198 211 221 218 202 198 213 202 210 217 226 226 226 225 228 231 230 228 233 235 233 231 231 232 233
50 27 21 352 310 241 194 183 162 153 154 164 175 172 174 178 177 170 181 211 214 200 200 214 222 214 218 222 234 239 235 232 233 232 231 228 227 232 234 234 233 234 235
52 30 25 17 330 301 183 174 142 130 156 167 169 171 175 174 169 154 166 186 162 142 145 187 143 159 193 246 256 251 245 241 242 243 235 230 227 227 231 236 237 236 237
59 47 55 33 7 343 348 355 10 9 228 175 173 176 170 167 162 147 150 153 136 117 102 123 153 165 194 229 273 286 269 256 246 242 243 240 232 232 232 234 237 239 238
71 75 73 61 23 345 351 353 340 266 244 203 184 179 171 165 160 151 145 143 131 129 156 187 173 180 247 206 25 323 302 276 257 249 247 250 249 244 239 234 233 233 238
59 57 67 61 34 339 299 263 247 241 241 210 190 184 181 171 165 158 155 155 150 144 149 210 165 168 241 171 141 21 337 335 337 296 275 261 274 277 261 248 235 230 231
49 43 47 44 30 353 337 316 313 332 7 24 241 211 205 188 175 165 167 163 165 159 184 218 206 181 206 244 180 160 162 274 309 308 288 277 313 307 291 282 253 238 229
48 46 44 39 25 8 11 16 13 13 352 324 291 266 243 210 189 177 174 173 173 172 191 221 203 189 179 219 251 204 191 185 224 301 307 294 306 308 302 301 287 256 230
45 43 38 35 34 24 24 25 23 24 5 347 349 342 313 259 220 199 187 181 179 183 195 207 206 205 195 200 211 220 227 218 209 223 283 307 315 285 289 285 275 259 231
43 36 27 25 21 19 25 27 24 19 10 10 7 358 344 327 303 268 218 196 189 187 194 202 207 212 216 218 220 213 207 212 208 210 247 286 301 297 297 286 281 248 219
Height
1508 1512 1515 1517 1519 1520 1521 1522 1523 1524 1524 1525 1526 1528 1529 1530 1532 1533 1534 1536 1536 1537 1538 1539 1540 1541 1542 1543 1544 1544 1545 1545 1546 1547 1548 1549 1549 1549 1549 1549 1550 1551 1551
1504 1509 1513 1516 1518 1519 1521 1522 1523 1524 1524 1525 1526 1528 1529 1530 1532 1533 1534 1536 1537 1538 1538 1539 1540 1541 1542 1543 1544 1545 1546 1547 1548 1549 1549 1550 1551 1551 1551 1551 1551 1552 1553
1504 1508 1512 1515 1517 1519 1520 1521 1522 1523 1524 1525 1526 1528 1529 1530 1532 1533 1534 1536 1537 1538 1539 1540 1541 1542 1543 1544 1545 1546 1547 1548 1549 1550 1550 1551 1552 1553 1553 1553 1553 1553 1554
1504 1507 1510 1514 1516 1518 1519 1520 1521 1523 1524 1525 1526 1527 1529 1530 1531 1533 1534 1535 1536 1538 1539 1540 1541 1542 1543 1544 1545 1546 1547 1548 1549 1550 1551 1552 1553 1553 1554 1554 1554 1555 1555
1503 1506 1509 1512 1514 1516 1518 1519 1520 1522 1523 1524 1525 1527 1528 1529 1531 1532 1533 1534 1536 1537 1538 1539 1540 1542 1543 1544 1545 1546 1547 1548 1549 1550 1551 1551 1552 1554 1555 1555 1556 1556 1556
1503 1506 1509 1511 1513 1515 1517 1518 1519 1521 1522 1523 1525 1526 1527 1529 1530 1531 1532 1533 1535 1536 1537 1538 1539 1540 1542 1543 1544 1545 1547 1548 1549 1549 1550 1551 1552 1553 1554 1555 1556 1556 1557
1503 1505 1508 1510 1512 1514 1515 1517 1518 1520 1521 1522 1524 1525 1526 1528 1529 1530 1531 1532 1533 1534 1535 1536 1538 1539 1540 1541 1542 1544 1545 1546 1548 1548 1549 1550 1551 1552 1553 1555 1555 1556 1556
1503 1505 1507 1509 1511 1513 1514 1516 1517 1518 1520 1522 1523 1524 1526 1527 1528 1529 1530 1531 1532 1533 1534 1534 1536 1537 1538 1539 1540 1542 1543 1544 1546 1547 1547 1548 1549 1551 1552 1553 1554 1555 1555
1503 1504 1506 1508 1510 1511 1513 1514 1516 1517 1519 1520 1522 1523 1524 1525 1526 1527 1529 1530 1531 1531 1532 1533 1534 1535 1536 1537 1538 1540 1541 1542 1543 1544 1545 1546 1547 1548 1549 1551 1552 1553 1553
1503 1503 1504 1506 1508 1510 1511 1513 1515 1516 1517 1518 1520 1521 1522 1523 1524 1525 1526 1527 1528 1529 1530 1531 1532 1533 1534 1535 1536 1537 1538 1539 1540 1541 1543 1544 1545 1545 1547 1548 1550 1551 1551
1501 1502 1503 1504 1506 1508 1510 1511 1513 1514 1516 1517 1518 1519 1520 1521 1522 1523 1524 1525 1526 1526 1527 1528 1529 1530 1531 1532 1533 1534 1535 1535 1537 1538 1539 1540 1541 1542 1544 1545 1547 1548 1549
1497 1499 1501 1503 1505 1506 1508 1509 1510 1512 1513 1514 1515 1516 1517 1518 1519 1520 1521 1522 1522 1523 1524 1525 1526 1527 1528 1528 1529 1530 1531 1532 1533 1534 1535 1536 1537 1539 1540 1541 1543 1544 1545
1494 1498 1500 1502 1504 1505 1506 1507 1508 1509 1510 1511 1512 1513 1514 1515 1516 1517 1518 1518 1519 1520 1520 1521 1522 1522 1523 1525 1526 1527 1527 1528 1529 1530 1531 1532 1534 1535 1536 1537 1538 1540 1542
1493 1497 1500 1503 1503 1504 1504 1505 1505 1507 1508 1509 1510 1511 1512 1513 1514 1514 1515 1515 1515 1516 1517 1518 1518 1519 1520 1521 1522 1523 1524 1524 1525 1526 1527 1529 1530 1531 1532 1533 1534 1536 1538
1493 1497 1499 1502 1503 1503 1504 1504 1504 1505 1506 1508 1509 1509 1510 1511 1511 1512 1512 1513 1513 1513 1513 1514 1514 1515 1516 1516 1517 1519 1520 1520 1522 1523 1523 1524 1525 1526 1528 1529 1530 1532 1533
1494 1497 1501 1501 1502 1502 1502 1503 1503 1503 1504 1505 1506 1507 1507 1508 1509 1509 1509 1509 1509 1509 1509 1510 1510 1511 1511 1511 1512 1513 1515 1515 1517 1518 1519 1519 1520 1522 1523 1524 1525 1527 1529
1495 1495 1496 1499 1497 1496 1498 1501 1501 1501 1502 1503 1504 1505 1505 1505 1506 1506 1506 1506 1506 1506 1506 1506 1506 1506 1506 1506 1507 1508 1509 1510 1511 1512 1513 1514 1515 1516 1517 1518 1520 1521 1523
1493 1494 1492 1490 1487 1487 1493 1498 1500 1500 1501 1502 1503 1503 1503 1503 1504 1503 1503 1503 1503 1502 1502 1502 1502 1502 1502 1502 1502 1503 1504 1504 1505 1506 1507 1508 1509 1510 1511 1513 1514 1516 1517
1491 1488 1484 1477 1477 1480 1485 1493 1498 1497 1499 1500 1502 1502 1501 1501 1501 1500 1500 1500 1500 1500 1499 1499 1499 1498 1498 1498 1498 1498 1498 1499 1499 1501 1501 1502 1504 1505 1506 1507 1508 1509 1511
1487 1483 1479 1474 1470 1474 1482 1489 1494 1495 1497 1499 1500 1500 1499 1499 1499 1498 1498 1498 1498 1497 1496 1496 1496 1495 1495 1494 1493 1493 1492 1493 1493 1494 1496 1497 1498 1499 1500 1501 1502 1503 1505
1483 1477 1476 1477 1475 1480 1484 1489 1492 1496 1496 1496 1497 1498 1498 1497 1497 1496 1496 1495 1495 1494 1493 1493 1492 1492 1491 1490 1489 1488 1488 1488 1488 1489 1490 1492 1493 1494 1494 1495 1496 1498 1499
1483 1480 1479 1481 1483 1486 1489 1490 1493 1495 1495 1495 1495 1496 1496 1495 1495 1495 1494 1493 1492 1491 1491 1491 1489 1489 1488 1487 1486 1484 1483 1484 1484 1485 1486 1487 1488 1488 1489 1489 1490 1491 1493
1485 1485 1485 1486 1487 1488 1489 1490 1492 1493 1494 1493 1493 1493 1493 1493 1493 1492 1492 1491 1490 1489 1489 1488 1487 1486 1485 1484 1483 1482 1481 1481 1480 1480 1481 1483 1484 1484 1484 1484 1485 1485 1487
1490 1490 1489 1490 1491 1490 1489 1490 1490 1491 1491 1491 1490 1489 1489 1489 1489 1489 1489 1488 1487 1487 1487 1486 1485 1484 1483 1482 1480 1479 1479 1479 1478 1476 1476 1478 1479 1479 1479 1479 1479 1480 1481
1495 1494 1493 1493 1492 1491 1489 1489 1488 1488 1488 1487 1486 1486 1485 1485 1485 1485 1485 1485 1484 1484 1484 1483 1483 1481 1480 1479 1477 1476 1476 1475 1475 1475 1472 1471 1473 1474 1474 1474 1474 1475 1477
1499 1497 1496 1494 1493 1491 1489 1488 1487 1485 1484 1483 1482 1481 1481 1481 1481 1480 1480 1480 1480 1481 1481 1480 1479 1478 1477 1476 1474 1473 1472 1471 1471 1471 1469 1468 1467 1468 1469 1469 1470 1471 1472